Regional Weather Roundup
Issued by NWS

Home | Current Version | Previous Version | Text Only | Print | Product List | Glossary On
Versions: 1 2 3 4 5 6 7 8 9 10 11 12 13 14 15 16 17 18 19 20 21 22 23 24 25 26 27 28 29 30 31 32 33 34 35 36 37 38 39 40 41 42 43 44 45 46 47 48 49 50
062
ASUS43 KMKX 281821
RWRWI

WISCONSIN REGIONAL WEATHER ROUNDUP
NATIONAL WEATHER SERVICE MILWAUKEE/SULLIVAN WI
100 PM CDT SAT MAY 28 2016

NOTE: "FAIR" INDICATES FEW OR NO CLOUDS BELOW 12,000 FEET WITH NO
SIGNIFICANT WEATHER AND/OR OBSTRUCTIONS TO VISIBILITY.

WIZ001-002-006>008-014>016-023>028-281900-
NORTHWEST WISCONSIN

CITY           SKY/WX    TMP DP  RH WIND       PRES   REMARKS
SUPERIOR ARPT  CLOUDY    51  49  93 N3        29.79F
6HR MIN TEMP:  45; 6HR MAX TEMP:  52;

ASHLAND        CLOUDY    60  54  80 N5        29.78F
6HR MIN TEMP:  49; 6HR MAX TEMP:  60;

HAYWARD        CLOUDY    67  61  81 CALM      29.77S
6HR MIN TEMP:  56; 6HR MAX TEMP:  67; 6HR PCP:  0.01;

SIREN          CLOUDY    66  58  75 CALM      29.78S
6HR MIN TEMP:  53; 6HR MAX TEMP:  66;

CUMBERLAND     CLOUDY    63  59  88 CALM      29.78S
RICE LAKE      CLOUDY    67  62  81 W3        29.78S
6HR MIN TEMP:  59; 6HR MAX TEMP:  67;

CHETEK         CLOUDY    69  64  83 CALM      29.76S
6HR MIN TEMP:  60; 6HR MAX TEMP:  70;

LADYSMITH      CLOUDY    72  65  78 CALM      29.77S
6HR MIN TEMP:  63; 6HR MAX TEMP:  73;

EAU CLAIRE     CLOUDY    71  63  75 SW7       29.75S
6HR MIN TEMP:  63; 6HR MAX TEMP:  74;

MENOMONIE      RAIN      71  70  98 SW5       29.77S
6HR MIN TEMP:  63; 6HR MAX TEMP:  71;

NEW RICHMOND   CLOUDY    67  63  87 NW3       29.78R
6HR MIN TEMP:  60; 6HR MAX TEMP:  67;

OSCEOLA        CLOUDY    65  65  99 CALM      29.80S
6HR MIN TEMP:  58; 6HR MAX TEMP:  65;

$$

WIZ003>005-009-010-017-018-281900-
NORTH CENTRAL WISCONSIN

CITY           SKY/WX    TMP DP  RH WIND       PRES   REMARKS
MANITOWISH WTR NOT AVBL
ARBOR VITAE    RAIN      66  64  92 E3        29.77S
6HR MIN TEMP:  65; 6HR MAX TEMP:  72; 6HR PCP:  0.43;

WOODRUFF       RAIN      66  64  92 E3        29.77S
6HR MIN TEMP:  65; 6HR MAX TEMP:  72; 6HR PCP:  0.43;

RHINELANDER    LGT RAIN  68  66  93 SW3       29.78S FOG
6HR MIN TEMP:  67; 6HR MAX TEMP:  69; 6HR PCP:  0.43;

EAGLE RIVER    RAIN      66  65  97 SE6       29.78S
LAND O LAKES   CLOUDY    69  66  90 E5        29.79F
6HR MIN TEMP:  64; 6HR MAX TEMP:  70; 6HR PCP:  0.01;

PHILLIPS       CLOUDY    72  65  80 NW3       29.75S
6HR MIN TEMP:  64; 6HR MAX TEMP:  71;

TOMAHAWK       CLOUDY    67  65  94 CALM      29.77F FOG
6HR MIN TEMP:  64; 6HR MAX TEMP:  69;

MEDFORD        CLOUDY    68  68  98 S5        29.75F
6HR MIN TEMP:  65; 6HR MAX TEMP:  69; 6HR PCP:  0.28;

MERRILL        CLOUDY   N/A N/A N/A S7        29.78R
$$

WIZ029-030-035-036-043>047-281900-
CENTRAL WISCONSIN

CITY           SKY/WX    TMP DP  RH WIND       PRES   REMARKS
WAUSAU         CLOUDY    74  64  71 S20G31    29.76R
6HR MIN TEMP:  68; 6HR MAX TEMP:  75; 6HR PCP:  0.18;

MOSINEE        CLOUDY    72  66  83 S15G23    29.79R
MARSHFIELD     PTSUNNY   73  65  75 SW13G22   29.77S
6HR MIN TEMP:  68; 6HR MAX TEMP:  74; 6HR PCP:  0.14;

STEVENS POINT  CLOUDY    72  64  76 S15       29.80S
6HR MIN TEMP:  65; 6HR MAX TEMP:  72; 6HR PCP:  0.02;

WAUPACA        CLOUDY    76  67  72 S15G24    29.81S
6HR MIN TEMP:  69; 6HR MAX TEMP:  76; 6HR PCP:  0.02;

WAUTOMA        CLOUDY    75  64  68 SW18G26   29.82S
6HR MIN TEMP:  67; 6HR MAX TEMP:  76; 6HR PCP: TRACE;

WISC RAPIDS    PTSUNNY   77  63  61 SW16G25   29.80S
6HR MIN TEMP:  68; 6HR MAX TEMP:  77; 6HR PCP:  0.04;

CAMP DOUGLAS   PTSUNNY   77  75  94 S13G21    29.80R
                                      6HR PCP:  0.04;

$$

WIZ011>013-019>022-031-037>040-048>050-281900-
NORTHEAST WISCONSIN

CITY           SKY/WX    TMP DP  RH WIND       PRES   REMARKS
ANTIGO         CLOUDY    70  66  89 S13       29.80S
6HR MIN TEMP:  65; 6HR MAX TEMP:  70; 6HR PCP:  0.08;

SHAWANO        CLOUDY    76  65  69 S12G18    29.81R
6HR MIN TEMP:  69; 6HR MAX TEMP:  77; 6HR PCP:  0.01;

OCONTO         CLOUDY    73  73 100 S6        29.80F
                                      6HR PCP:  0.01;

STURGEON BAY   NOT AVBL
GREEN BAY      PTSUNNY   76  65  68 S22G31    29.81F
6HR MIN TEMP:  69; 6HR MAX TEMP:  76;

MANITOWOC      PTSUNNY   68  61  78 S18       29.86S
6HR MIN TEMP:  57; 6HR MAX TEMP:  70;

APPLETON       PTSUNNY   75  63  64 SW17G24   29.81S
CLINTONVILLE   CLOUDY    73  63  68 SW14G23   29.81R
OSHKOSH        CLOUDY    76  66  71 SW13G23   29.82S
6HR MIN TEMP:  69; 6HR MAX TEMP:  76;

$$

WIZ032>034-041-042-053>061-281900-
SOUTHWEST WISCONSIN

CITY           SKY/WX    TMP DP  RH WIND       PRES   REMARKS
LA CROSSE      CLOUDY    75  64  68 S12       29.78S
6HR MIN TEMP:  66; 6HR MAX TEMP:  75; 6HR PCP: TRACE;

SPARTA         PTSUNNY   74  64  69 SW10G20   29.80S
6HR MIN TEMP:  65; 6HR MAX TEMP:  74; 6HR PCP:  0.05;

VIROQUA        PTSUNNY   74  62  68 SW16      29.82S
6HR MIN TEMP:  66; 6HR MAX TEMP:  74;

BOSCOBEL       PTSUNNY   77  61  57 SW13G18   29.82S
6HR MIN TEMP:  67; 6HR MAX TEMP:  79; 6HR PCP: TRACE;

PRAIRIE DU CHI MOSUNNY   76  59  56 S13       29.80F
6HR MIN TEMP:  65; 6HR MAX TEMP:  76;

PLATTEVILLE    PTSUNNY   77  66  70 S16       29.84S
6HR MIN TEMP:  66; 6HR MAX TEMP:  77;

$$

WIZ056-057-062-063-064-067-068-281900-
SOUTH CENTRAL WISCONSIN

CITY           SKY/WX    TMP DP  RH WIND       PRES   REMARKS
REEDSBURG      PTSUNNY   74  64  71 SW12G21   29.83S
6HR MIN TEMP:  67; 6HR MAX TEMP:  75;

BARABOO/DELLS  PTSUNNY   76  62  61 SW13G23   29.82S
6HR MIN TEMP:  67; 6HR MAX TEMP:  76;

LONE ROCK      PTSUNNY   78  63  59 SW14G25   29.83S HX  80
6HR MIN TEMP:  69; 6HR MAX TEMP:  79;

MINERAL POINT  PTSUNNY   77  64  65 SW14      29.84F
MADISON        PTSUNNY   79  64  60 S21G26    29.83S HX  81
6HR MIN TEMP:  69; 6HR MAX TEMP:  79;

MIDDLETON      PTSUNNY   80  64  58 S18G25    29.84F HX  82
6HR MIN TEMP:  70; 6HR MAX TEMP:  80;

WATERTOWN      CLOUDY    78  66  67 SW17      29.86R HX  80
6HR MIN TEMP:  69; 6HR MAX TEMP:  78;

MONROE         MOSUNNY   77  63  61 S21       29.86F
JANESVILLE     MOSUNNY   81  64  57 S20G26    29.87S HX  82
$$

WIZ051-052-058>065-066-070>072-281900-
SOUTHEAST WISCONSIN

CITY           SKY/WX    TMP DP  RH WIND       PRES   REMARKS
MILWAUKEE      CLOUDY    77  64  64 S18G26    29.88S
6HR MIN TEMP:  69; 6HR MAX TEMP:  77;

WAUKESHA       CLOUDY    73  64  73 S9        29.89S
MILWAUKEE/TIMM PTSUNNY   77  63  61 S16G24    29.88S
RACINE         CLOUDY    77  62  59 S21G29    29.91S
6HR MIN TEMP:  63; 6HR MAX TEMP:  78;

BURLINGTON     CLOUDY    74  64  69 S13G20    29.89S
6HR MIN TEMP:  67; 6HR MAX TEMP:  76;

KENOSHA        CLOUDY    76  63  64 S18G28    29.90S
6HR MIN TEMP:  68; 6HR MAX TEMP:  77;

FOND DU LAC    CLOUDY    77  66  68 S22G28    29.84R
6HR MIN TEMP:  70; 6HR MAX TEMP:  76;

SHEBOYGAN      CLOUDY    75  66  73 S9        29.86R
6HR MIN TEMP:  64; 6HR MAX TEMP:  76;

WEST BEND      CLOUDY    73  64  73 S8        29.87R
JUNEAU         CLOUDY    77  67  69 S20G28    29.87R
6HR MIN TEMP:  68; 6HR MAX TEMP:  77;

$$

LSZ147-162-281900-
LAKE SUPERIOR

STATION/POSITION TIME  TEMP    WIND        PRES    WAVE
                       AIR SEA DIR/SP/G            HT/PER
                 (UTC) (F)     (DEG/KT/KT) (MB)    (FT/S)
W MID LAKE BUOY  1750   42 38   40/ 10/ 12 1008.7F   1/ 4
DEVILS ISLAND    1800   45     280/  5/  8 1009.3F
SAXON HARBOR     1700   51      40/  1/  4 1008.8S
$$

LMZ867-665-643>646-281900-
LAKE MICHIGAN

STATION/POSITION TIME  TEMP    WIND        PRES    WAVE
                       AIR SEA DIR/SP/G            HT/PER
                 (UTC) (F)     (DEG/KT/KT) (MB)    (FT/S)
CHAMBERS ISLAND  1700   70     150/  7/ 12 1010.2S
N MID LAKE BUOY  1750   53 46  190/ 16/ 17 1011.1F   2/ 4
NORTHPORT PIER   1700   60     150/ 13/ 17 1010.8S
SISTER BAY       C1F1C2F2C3F3C4F4C5F5C6F6C7F7C8M1C9M2Ca!



USA.gov is the U.S. government's official web portal to all federal, state and local government web resources and services.